User: anonymous   Login
Location: Muenchen
(48.1800°N, 11.5800°E)
Time: 12:17:40
(UTC+01:00)
Language:

Tiros 1 - Orbit

View from above orbital plane
View from above orbital plane
View from above satellite
View from above satellite

Ground track
Ground track

The orbit data is extracted from the following two-line orbital elements,

1 00029U 60002B   14354.67051902  .00001488  00000-0  25671-3 0  4075
2 00029 048.3801 051.2462 0024877 293.6276 066.2024 14.73521982922735
Epoch (UTC): 20 December 2014 16:05:32
Eccentricity: 0.0024877
inclination: 48.3801°
perigee height: 632 km
apogee height: 667 km
right ascension of ascending node: 51.2462°
argument of perigee: 293.6276°
revolutions per day: 14.73521982
mean anomaly at epoch: 66.2024°
orbit number at epoch: 92273

The dashed part of the orbit path shows where the satellite is in the earth's shadow,  

DLR